GW5135 Weather Reports


Display with metric or nautical units.
time (UTC)temp
F
wind
direction
speed
MPH
gust
MPH
rain 1hr
in
rain 24hr
in
rain mn
in
humidity
%
barometer
mb
20260508063320 36 131 0.0 0.0 0.00 0.00 0.00 98 1017.7
20260508062816 36 117 0.0 0.0 0.00 0.00 0.00 98 1017.7
20260508062314 37 99 0.0 0.0 0.00 0.00 0.00 98 1017.7
20260508061810 37 98 0.0 0.0 0.00 0.00 0.00 98 1017.7
20260508061307 37 99 0.0 0.0 0.00 0.00 0.00 97 1017.6
20260508060804 37 102 0.0 0.0 0.00 0.00 0.00 97 1017.5
20260508060302 37 106 0.0 0.0 0.00 0.00 0.00 97 1017.6
20260508055757 37 105 0.0 0.0 0.00 0.00 0.00 97 1017.7
20260508055255 37 109 0.0 0.0 0.00 0.00 0.00 97 1017.7
20260508054750 37 109 0.0 0.0 0.00 0.00 0.00 97 1017.7
20260508054249 37 109 0.0 0.0 0.00 0.00 0.00 97 1017.7
20260508053745 37 124 0.0 0.0 0.00 0.00 0.00 97 1017.7
20260508053243 37 122 0.0 0.0 0.00 0.00 0.00 97 1017.8
20260508052740 38 124 0.0 0.0 0.00 0.00 0.00 97 1017.7
20260508052237 38 124 0.0 0.0 0.00 0.00 0.00 97 1017.8
20260508051733 38 121 0.0 0.0 0.00 0.00 0.00 96 1017.7
20260508051228 38 121 0.0 0.0 0.00 0.00 0.00 96 1017.8
20260508050725 38 121 0.0 0.0 0.00 0.00 0.00 96 1017.8
20260508050223 38 121 0.0 0.0 0.00 0.00 0.00 96 1017.8
20260508045718 38 123 0.0 0.0 0.00 0.00 0.00 95 1017.9
20260508045216 38 104 0.0 0.0 0.00 0.00 0.00 95 1017.8
20260508044713 38 102 0.0 0.0 0.00 0.00 0.00 95 1017.9
20260508044210 39 101 0.0 0.0 0.00 0.00 0.00 95 1017.9
20260508043705 39 103 0.0 0.0 0.00 0.00 0.00 95 1017.7
20260508043204 39 117 0.0 0.0 0.00 0.00 0.00 95 1017.8
20260508042700 39 118 0.0 0.0 0.00 0.00 0.00 95 1017.6
20260508042157 39 119 0.0 0.0 0.00 0.00 0.00 94 1017.7
20260508041653 39 120 0.0 0.0 0.00 0.00 0.00 94 1017.7
20260508041150 39 119 0.0 0.0 0.00 0.00 0.00 93 1017.5
20260508040647 40 118 0.0 0.0 0.00 0.00 0.00 93 1017.6
20260508040144 40 113 0.0 0.0 0.00 0.01 0.01 92 1017.4
20260508035641 40 112 0.0 0.0 0.00 0.01 0.01 92 1017.4
20260508035139 40 98 0.0 0.0 0.00 0.01 0.01 92 1017.4
20260508034636 40 129 0.0 0.0 0.00 0.01 0.01 92 1017.4
20260508034133 40 142 0.0 0.0 0.00 0.01 0.01 91 1017.4
20260508033630 41 143 0.0 0.0 0.00 0.01 0.01 91 1017.3
20260508033128 41 143 0.0 0.0 0.00 0.01 0.01 90 1017.3
20260508032624 41 131 0.0 0.0 0.00 0.01 0.01 90 1017.2
20260508032122 41 132 0.0 0.0 0.00 0.01 0.01 90 1017.3
20260508031619 41 136 0.0 0.0 0.00 0.01 0.01 89 1017.2
20260508031115 42 133 0.0 0.0 0.00 0.01 0.01 89 1017.4
20260508030611 42 152 0.0 0.0 0.00 0.01 0.01 88 1017.2
20260508030110 42 153 0.0 0.0 0.00 0.01 0.01 88 1016.9
20260508025605 42 138 0.0 0.0 0.00 0.01 0.01 87 1017.2
20260508025103 42 126 0.0 0.0 0.00 0.01 0.01 86 1016.8
20260508024558 43 127 0.0 0.0 0.00 0.01 0.01 86 1016.8
20260508024056 43 129 0.0 0.0 0.00 0.01 0.01 86 1016.9
20260508023552 43 134 0.0 0.0 0.00 0.01 0.01 85 1016.8
20260508023050 44 134 0.0 0.0 0.00 0.01 0.01 85 1016.8
20260508022545 44 136 0.0 1.0 0.00 0.01 0.01 85 1016.7
20260508022043 44 97 0.0 0.0 0.00 0.01 0.01 83 1016.7
20260508021538 44 141 0.0 0.0 0.00 0.01 0.01 83 1016.7
20260508021034 44 140 0.0 0.0 0.00 0.01 0.01 81 1016.5
20260508020532 45 143 0.0 0.0 0.00 0.01 0.01 81 1016.4
20260508020030 45 106 0.0 0.0 0.00 0.01 0.01 80 1016.2
20260508015527 45 152 0.0 0.0 0.00 0.01 0.01 83 1016.1
20260508015024 46 196 0.0 0.0 0.00 0.01 0.01 78 1016.1
20260508014520 46 211 0.0 0.0 0.00 0.01 0.01 78 1016.2
20260508014016 46 212 0.0 0.0 0.00 0.01 0.01 76 1016.1
20260508013512 47 213 0.0 0.0 0.00 0.01 0.01 76 1016.0
20260508013010 47 215 0.0 0.0 0.00 0.01 0.01 76 1015.8
20260508012507 47 231 0.0 0.0 0.00 0.01 0.01 74 1016.0
20260508012004 47 231 0.0 0.0 0.00 0.01 0.01 76 1015.5
20260508011502 48 231 0.0 0.0 0.00 0.01 0.01 75 1015.6
20260508010959 48 231 0.0 1.0 0.00 0.01 0.01 74 1015.5
20260508010456 49 272 0.0 0.0 0.00 0.01 0.01 70 1015.3
20260508005954 49 265 0.0 1.0 0.00 0.01 0.01 70 1015.1
20260508005450 50 186 0.0 0.0 0.00 0.01 0.01 69 1015.4
20260508004947 51 188 0.0 0.0 0.00 0.01 0.01 71 1015.2
20260508004443 51 277 0.0 0.0 0.00 0.01 0.01 60 1015.2
20260508003940 52 248 0.0 1.0 0.00 0.01 0.01 62 1015.3
20260508003436 53 322 0.0 1.0 0.00 0.01 0.01 64 1015.1
20260508002934 54 312 1.0 3.0 0.00 0.01 0.01 60 1014.8
20260508002430 54 340 0.0 1.0 0.00 0.01 0.01 54 1014.9
20260508001926 53 52 0.0 1.0 0.00 0.01 0.01 64 1014.8
20260508001423 54 56 0.0 1.0 0.00 0.01 0.01 66 1014.9
20260508000919 54 293 0.0 1.0 0.00 0.01 0.01 62 1014.8
20260508000415 55 273 1.0 1.0 0.00 0.01 0.01 61 1014.6
20260507235912 55 64 0.0 1.0 0.00 0.01 0.01 58 1014.3
20260507235409 55 15 0.0 1.0 0.00 0.01 0.01 57 1014.6
20260507234906 56 30 1.0 2.0 0.00 0.01 0.01 57 1014.4
20260507234403 57 212 0.0 1.0 0.00 0.01 0.01 48 1014.2
20260507233859 57 337 1.0 2.0 0.00 0.01 0.01 53 1014.3
20260507233357 59 289 1.0 3.0 0.00 0.01 0.01 49 1014.4
20260507232855 59 303 1.0 3.0 0.00 0.01 0.01 40 1014.2
20260507232351 61 212 0.0 2.0 0.00 0.01 0.01 49 1014.3
20260507231849 61 265 0.0 3.0 0.00 0.01 0.01 38 1014.1
20260507231345 62 294 2.0 3.0 0.00 0.01 0.01 39 1014.0
20260507230841 61 243 4.0 4.0 0.00 0.01 0.01 36 1013.9
20260507230339 61 255 3.0 6.0 0.00 0.01 0.01 37 1014.1
20260507225838 61 320 2.0 3.0 0.00 0.01 0.01 42 1014.2
20260507225335 60 264 0.0 1.0 0.00 0.01 0.01 42 1013.8
20260507224831 61 289 3.0 3.0 0.00 0.01 0.01 42 1014.0
20260507224328 62 5 3.0 6.0 0.00 0.01 0.01 36 1013.7
20260507223824 62 279 1.0 7.0 0.00 0.01 0.01 36 1013.6
20260507223320 62 231 3.0 4.0 0.00 0.01 0.01 39 1013.9
20260507222818 62 247 2.0 3.0 0.00 0.01 0.01 36 1013.9
20260507222314 62 188 1.0 2.0 0.00 0.01 0.01 40 1013.5
20260507221811 61 247 3.0 4.0 0.00 0.01 0.01 40 1013.8
20260507221307 62 292 3.0 3.0 0.00 0.01 0.01 43 1013.7
20260507220803 62 188 2.0 2.0 0.00 0.01 0.01 44 1013.4
20260507220302 62 265 2.0 3.0 0.00 0.01 0.01 43 1013.5
20260507215758 61 248 1.0 2.0 0.00 0.01 0.01 42 1013.6
20260507215255 62 25 3.0 8.0 0.00 0.01 0.01 39 1013.3
20260507214752 62 348 3.0 9.0 0.00 0.01 0.01 37 1013.5
20260507214249 63 300 6.0 10.0 0.00 0.01 0.01 39 1013.5
20260507213744 63 207 4.0 4.0 0.00 0.01 0.01 38 1013.1
20260507213242 62 259 2.0 3.0 0.00 0.01 0.01 38 1013.1
20260507212738 61 266 3.0 6.0 0.00 0.01 0.01 40 1013.3
20260507212235 61 260 3.0 6.0 0.00 0.01 0.01 41 1013.0
20260507211732 61 229 1.0 3.0 0.00 0.01 0.01 45 1013.1
20260507211228 61 249 1.0 3.0 0.00 0.01 0.01 43 1013.1
20260507210725 60 259 1.0 2.0 0.00 0.01 0.01 43 1013.2
20260507210222 60 253 2.0 2.0 0.00 0.01 0.01 44 1013.0
20260507205718 61 237 2.0 3.0 0.00 0.01 0.01 43 1013.0
20260507205215 62 275 3.0 6.0 0.00 0.01 0.01 40 1012.9
20260507204711 62 348 1.0 6.0 0.00 0.01 0.01 39 1013.1
20260507204209 64 313 2.0 2.0 0.00 0.01 0.01 40 1012.7
20260507203707 62 22 4.0 8.0 0.00 0.01 0.01 39 1013.0
20260507203204 63 291 3.0 8.0 0.00 0.01 0.01 41 1012.9
20260507202659 63 93 1.0 8.0 0.00 0.01 0.01 42 1013.0
20260507202155 64 275 4.0 7.0 0.00 0.01 0.01 41 1013.0
20260507201651 64 264 3.0 3.0 0.00 0.01 0.01 41 1013.2
20260507201148 62 252 3.0 4.0 0.00 0.01 0.01 44 1013.1
20260507200644 63 248 3.0 6.0 0.00 0.01 0.01 41 1013.4
20260507200140 63 223 4.0 6.0 0.00 0.01 0.01 41 1013.3
20260507195637 63 274 3.0 9.0 0.00 0.01 0.01 44 1013.5
20260507195134 63 195 5.0 7.0 0.00 0.01 0.01 39 1013.5
20260507194631 65 292 3.0 4.0 0.00 0.01 0.01 44 1013.3
20260507194126 64 270 1.0 4.0 0.00 0.01 0.01 47 1013.5
20260507193624 64 254 4.0 7.0 0.00 0.01 0.01 44 1013.5
20260507193121 63 272 0.0 2.0 0.00 0.01 0.01 45 1013.6
20260507192617 60 210 0.0 3.0 0.00 0.01 0.01 45 1013.8
20260507192114 61 254 3.0 4.0 0.00 0.01 0.01 45 1013.7
20260507191610 63 272 3.0 4.0 0.00 0.01 0.01 46 1013.7
20260507191107 64 343 5.0 7.0 0.00 0.01 0.01 39 1013.8
20260507190604 62 147 2.0 7.0 0.00 0.01 0.01 42 1013.6
20260507185601 62 206 2.0 3.0 0.00 0.01 0.01 45 1013.7
20260507185057 62 239 1.0 4.0 0.00 0.01 0.01 44 1013.9
20260507184555 61 271 3.0 4.0 0.00 0.01 0.01 46 1013.8
20260507184052 63 251 2.0 6.0 0.00 0.01 0.01 46 1013.6
20260507183548 64 291 4.0 4.0 0.00 0.01 0.01 42 1013.8
20260507183046 63 323 4.0 6.0 0.00 0.01 0.01 43 1013.8
20260507182542 64 284 2.0 4.0 0.00 0.01 0.01 44 1013.7
20260507182038 63 328 0.0 4.0 0.00 0.01 0.01 45 1013.9
20260507181535 63 258 1.0 3.0 0.00 0.01 0.01 47 1013.9
20260507181031 63 25 3.0 7.0 0.00 0.01 0.01 43 1014.1
20260507180527 62 122 1.0 2.0 0.00 0.01 0.01 46 1013.9
20260507180025 64 190 4.0 4.0 0.00 0.01 0.01 52 1014.1
20260507175521 62 8 1.0 8.0 0.00 0.01 0.01 45 1014.3
20260507175019 62 279 2.0 6.0 0.00 0.01 0.01 46 1014.3
20260507174515 62 248 3.0 7.0 0.00 0.01 0.01 49 1014.3
20260507174013 62 260 3.0 6.0 0.00 0.01 0.01 47 1014.3
20260507173510 61 275 2.0 3.0 0.00 0.01 0.01 48 1014.3
20260507173008 63 253 5.0 8.0 0.00 0.01 0.01 44 1014.3
20260507172503 62 248 1.0 3.0 0.00 0.01 0.01 50 1014.4
20260507172000 63 267 2.0 10.0 0.00 0.01 0.01 46 1014.4
20260507171455 63 239 3.0 3.0 0.00 0.01 0.01 56 1014.3
20260507170953 62 144 2.0 3.0 0.00 0.01 0.01 52 1014.5
20260507170449 60 309 0.0 2.0 0.00 0.01 0.01 54 1014.4
20260507165946 59 257 1.0 6.0 0.00 0.01 0.01 51 1014.6
20260507165442 60 356 1.0 3.0 0.00 0.01 0.01 48 1014.5
20260507164938 59 267 1.0 2.0 0.00 0.01 0.01 52 1014.6
20260507164435 59 256 1.0 1.0 0.00 0.01 0.01 58 1014.7
20260507163932 59 26 0.0 3.0 0.00 0.01 0.01 52 1014.8
20260507163429 60 282 3.0 4.0 0.00 0.01 0.01 53 1014.8
20260507162926 61 269 3.0 3.0 0.00 0.01 0.01 51 1014.7
20260507162421 61 342 4.0 8.0 0.00 0.01 0.01 50 1015.1
20260507161919 60 254 2.0 4.0 0.00 0.01 0.01 55 1015.2
20260507161415 60 318 4.0 4.0 0.00 0.01 0.01 59 1015.0
20260507160912 61 93 3.0 4.0 0.00 0.01 0.01 50 1015.1
20260507160408 59 257 1.0 2.0 0.00 0.01 0.01 54 1015.2
20260507155904 57 131 2.0 2.0 0.00 0.01 0.01 57 1015.2
20260507155400 57 266 0.0 1.0 0.00 0.01 0.01 63 1015.2
20260507154857 57 210 1.0 2.0 0.00 0.01 0.01 58 1015.1
20260507154354 57 70 0.0 4.0 0.00 0.01 0.01 58 1015.3
20260507153851 57 249 1.0 1.0 0.00 0.01 0.01 62 1015.5
20260507153347 57 205 1.0 2.0 0.00 0.01 0.01 65 1015.4
20260507152844 57 180 1.0 2.0 0.00 0.01 0.01 63 1015.4
20260507152340 58 38 1.0 2.0 0.00 0.01 0.01 54 1015.4
20260507151836 60 87 2.0 3.0 0.00 0.01 0.01 51 1015.3
20260507151332 60 188 1.0 4.0 0.00 0.01 0.01 54 1015.4
20260507150830 60 222 2.0 4.0 0.00 0.01 0.01 61 1015.6
20260507150326 58 220 2.0 6.0 0.00 0.01 0.01 57 1015.5
20260507145822 58 184 3.0 7.0 0.00 0.01 0.01 58 1015.8
20260507145319 58 262 4.0 6.0 0.00 0.01 0.01 60 1015.4
20260507144816 57 116 4.0 4.0 0.00 0.01 0.01 54 1015.6
20260507144314 57 220 4.0 4.0 0.00 0.01 0.01 60 1015.5
20260507143810 57 251 2.0 3.0 0.00 0.01 0.01 60 1015.8
20260507143307 57 262 2.0 2.0 0.00 0.01 0.01 62 1016.0
20260507142803 58 38 1.0 7.0 0.00 0.01 0.01 60 1015.7
20260507142300 56 262 1.0 2.0 0.00 0.01 0.01 72 1016.1
20260507141756 56 229 3.0 3.0 0.00 0.01 0.01 65 1016.1
20260507141254 56 197 3.0 3.0 0.00 0.01 0.01 65 1016.0
20260507140749 57 208 3.0 3.0 0.00 0.01 0.01 69 1016.3
20260507140247 56 220 0.0 1.0 0.00 0.01 0.01 74 1016.4
20260507135744 56 254 1.0 1.0 0.00 0.01 0.01 80 1016.5
20260507135241 55 241 0.0 1.0 0.00 0.01 0.01 84 1016.4
20260507134737 53 231 0.0 0.0 0.00 0.01 0.01 85 1016.5
20260507134234 54 208 0.0 0.0 0.00 0.01 0.01 85 1016.7
20260507133730 53 204 0.0 0.0 0.00 0.01 0.01 85 1016.6
20260507133227 53 204 0.0 0.0 0.00 0.01 0.01 86 1016.8
20260507132724 52 228 0.0 0.0 0.00 0.01 0.01 87 1016.7
20260507132221 53 228 0.0 0.0 0.00 0.01 0.01 86 1016.8
20260507131717 52 247 0.0 0.0 0.00 0.01 0.01 87 1016.7
20260507131215 52 246 0.0 0.0 0.00 0.01 0.01 88 1016.8
20260507130712 52 246 0.0 0.0 0.00 0.01 0.01 88 1016.7
20260507130210 51 246 0.0 0.0 0.00 0.01 0.01 93 1016.7
20260507125708 51 246 0.0 0.0 0.00 0.01 0.01 93 1016.7
20260507125205 51 254 0.0 0.0 0.00 0.01 0.01 93 1016.7
20260507124701 51 253 0.0 0.0 0.00 0.01 0.01 93 1016.6
20260507124159 51 268 0.0 0.0 0.00 0.01 0.01 94 1016.7
20260507123657 50 268 0.0 0.0 0.00 0.01 0.01 94 1016.9
20260507123154 50 268 0.0 0.0 0.00 0.01 0.01 95 1016.8
20260507122649 50 309 0.0 0.0 0.00 0.01 0.01 95 1016.9
20260507122145 50 311 0.0 0.0 0.00 0.01 0.01 96 1016.8
20260507121641 49 311 0.0 0.0 0.00 0.01 0.01 97 1016.8
20260507121137 49 315 0.0 0.0 0.00 0.01 0.01 98 1016.9
20260507120634 49 321 0.0 0.0 0.00 0.01 0.01 98 1017.0
20260507120130 49 321 0.0 0.0 0.00 0.01 0.01 98 1016.9
20260507115627 49 321 0.0 0.0 0.00 0.01 0.01 98 1017.0
20260507115122 49 322 0.0 0.0 0.00 0.01 0.01 99 1016.7
20260507114618 49 322 0.0 0.0 0.00 0.01 0.01 99 1016.9
20260507114116 49 322 0.0 0.0 0.00 0.01 0.01 99 1016.6
20260507113613 49 322 0.0 0.0 0.00 0.01 0.01 99 1016.5
20260507113110 49 322 0.0 0.0 0.00 0.01 0.01 99 1016.4
20260507112608 49 322 0.0 0.0 0.00 0.01 0.01 99 1016.3
20260507112104 48 322 0.0 0.0 0.00 0.01 0.01 99 1016.2
20260507111602 48 325 0.0 0.0 0.00 0.01 0.01 99 1016.1
20260507111058 48 325 0.0 0.0 0.00 0.01 0.01 99 1016.0
20260507110554 48 325 0.0 0.0 0.00 0.01 0.01 99 1016.0
20260507110051 48 325 0.0 0.0 0.00 0.01 0.01 99 1016.1
20260507105548 48 327 0.0 0.0 0.00 0.01 0.01 99 1015.6
20260507105044 48 327 0.0 0.0 0.00 0.01 0.01 99 1015.7
20260507104542 48 327 0.0 0.0 0.00 0.01 0.01 99 1016.0
20260507104038 48 327 0.0 0.0 0.00 0.01 0.01 99 1015.8
20260507103534 48 327 0.0 0.0 0.00 0.01 0.01 99 1015.7
20260507103031 48 327 0.0 0.0 0.00 0.01 0.01 99 1015.8
20260507102527 48 330 0.0 0.0 0.00 0.01 0.01 99 1015.7
20260507102023 48 342 0.0 0.0 0.00 0.01 0.01 99 1015.5
20260507101519 48 343 0.0 0.0 0.00 0.01 0.01 99 1015.6
20260507101016 48 345 0.0 0.0 0.00 0.01 0.01 99 1015.7
20260507100513 48 342 0.0 0.0 0.00 0.01 0.01 99 1016.0
20260507100011 48 332 0.0 0.0 0.00 0.01 0.01 99 1015.7
20260507095509 48 325 0.0 0.0 0.00 0.01 0.01 99 1015.8
20260507095005 48 325 0.0 0.0 0.00 0.01 0.01 99 1016.2
20260507094501 48 325 0.0 0.0 0.00 0.01 0.01 99 1015.8
20260507093959 49 327 0.0 0.0 0.00 0.01 0.01 99 1015.4
20260507093456 49 331 0.0 0.0 0.00 0.01 0.01 99 1015.5
20260507092954 49 331 0.0 0.0 0.00 0.01 0.01 99 1015.7
20260507092450 49 332 1.0 1.0 0.00 0.01 0.01 99 1015.6
20260507091947 49 320 1.0 1.0 0.00 0.01 0.01 99 1015.7
20260507091444 49 312 0.0 0.0 0.00 0.01 0.01 99 1015.5
20260507090940 49 312 0.0 0.0 0.00 0.01 0.01 99 1015.3
20260507090436 49 312 0.0 0.0 0.00 0.01 0.01 99 1015.4
20260507085932 49 312 0.0 0.0 0.00 0.01 0.01 99 1015.4
20260507085430 50 312 0.0 0.0 0.00 0.01 0.01 99 1015.1
20260507084927 50 312 0.0 0.0 0.00 0.01 0.01 99 1015.1
20260507084424 50 312 0.0 0.0 0.00 0.01 0.01 99 1015.2
20260507083921 50 312 0.0 0.0 0.00 0.01 0.01 99 1015.5
20260507083417 50 312 0.0 0.0 0.00 0.01 0.01 99 1015.7
20260507082913 50 312 0.0 0.0 0.00 0.01 0.01 99 1015.6
20260507082409 50 312 0.0 0.0 0.00 0.01 0.01 99 1015.5
20260507081906 50 312 0.0 0.0 0.00 0.01 0.01 99 1015.5
20260507081402 50 312 0.0 0.0 0.00 0.01 0.01 99 1015.7
20260507080859 50 312 0.0 0.0 0.00 0.01 0.01 99 1015.5
20260507080355 50 312 0.0 0.0 0.00 0.01 0.01 99 1015.6
20260507075851 50 312 0.0 0.0 0.00 0.01 0.01 99 1015.3
20260507075347 50 312 0.0 0.0 0.00 0.01 0.01 99 1015.7
20260507074844 50 312 0.0 0.0 0.00 0.01 0.01 99 1015.3
20260507074341 50 312 0.0 0.0 0.00 0.01 0.01 99 1015.5
20260507073838 50 312 0.0 0.0 0.00 0.01 0.01 99 1015.6
20260507073335 50 312 0.0 0.0 0.00 0.01 0.01 99 1015.5
20260507072832 50 312 0.0 0.0 0.00 0.01 0.01 99 1015.5
20260507072329 50 312 0.0 0.0 0.00 0.01 0.01 99 1015.6
20260507071827 50 312 0.0 0.0 0.00 0.01 0.01 99 1015.5
20260507071324 50 312 0.0 0.0 0.00 0.01 0.01 99 1015.5
20260507070820 50 312 0.0 0.0 0.00 0.01 0.01 99 1015.4
20260507070318 50 312 0.0 0.0 0.00 0.01 0.01 99 1015.3
20260507065814 50 312 0.0 0.0 0.00 0.01 0.01 99 1015.5
20260507065310 50 312 0.0 0.0 0.00 0.01 0.01 99 1015.5
20260507064808 50 312 0.0 0.0 0.00 0.01 0.01 99 1015.3
20260507064307 50 312 0.0 0.0 0.00 0.01 0.01 99 1015.4
20260507063804 50 312 0.0 0.0 0.00 0.01 0.01 99 1015.5